Hourly Data Report for July 31, 2021

WATROUS EAST
SASKATCHEWAN
Current Station Operator: ECCC - MSC

51°40'00.000" N
105°24'00.000" W
525.60 m
4018642
71511
WIW

Download Data

Hourly Data (July 2021)
Hourly Data Report for July 31, 2021
TIME
LST
Temp Definition
°C
Dew Point Definition
°C
Rel Hum Definition
%
Precip. Amount Definition
mm

Wind Dir Definition
10's deg

Wind Spd Definition
km/h
Visibility Definition
km
Stn Press Definition
kPa
Hmdx Definition


Wind Chill Definition


Weather Definition


00:00 18.2 8.5 53 0.0 35 9   96.11     LegendNANA
01:00 15.4 8.2 62 0.0 32 5   96.15     LegendNANA
02:00 12.3 8.2 76 0.0 29 6   96.17     LegendNANA
03:00 13.6 8.8 72 0.0 28 11   96.19     LegendNANA
04:00 12.6 8.7 77 0.0 29 8   96.23     LegendNANA
05:00 13.5 8.4 71 0.0 30 12   96.26     LegendNANA
06:00 14.4 10.1 75 0.0 31 10   96.32     LegendNANA
07:00 15.5 10.9 74 0.0 30 7   96.36     LegendNANA
08:00 18.8 11.2 61 0.0 30 5   96.40     LegendNANA
09:00 23.1 9.4 42 0.0 34 6   96.42     LegendNANA
10:00 26.0 7.3 30 0.0 35 12   96.42 26   LegendNANA
11:00 27.6 5.9 25 0.0 36 17   96.43 27   LegendNANA
12:00 28.0 5.9 25 0.0 36 12   96.43 28   LegendNANA
13:00 29.0 5.7 23 0.0 3 11   96.41 29   LegendNANA
14:00 29.1 5.6 23 0.0 35 9   96.37 29   LegendNANA
15:00 29.4 5.6 22 0.0 1 17   96.35 29   LegendNANA
16:00 29.1 4.6 21 0.0 1 12   96.30 28   LegendNANA
17:00 29.0 5.6 23 0.0 1 15   96.27 28   LegendNANA
18:00 28.8 5.6 23 0.0 1 15   96.24 28   LegendNANA
19:00 28.5 6.1 24 0.0 1 12   96.23 28   LegendNANA
20:00 26.1 7.4 30 0.0 4 9   96.23 26   LegendNANA
21:00 21.6 8.4 43 0.0 5 8   96.26     LegendNANA
22:00 18.9 8.4 51 0.0 9 4   96.29     LegendNANA
23:00 15.3 7.7 60 0.0   0   96.29     LegendNANA

Notes on Data Quality.

Legend

  • E = Estimated
  • M = Missing
  • NA = Not Available*
  • [empty] = Indicates an unobserved value
Date modified: